FW3157 Weather Reports


time (UTC)temp
C
wind
direction
speed
KPH
gust
KPH
rain 1hr
cm
rain 24hr
cm
rain mn
cm
humidity
%
barometer
mb
20260903233211 23 107 3.2 4.8 0.00 1.55 0.00 74 1014.5
20260903232704 22 102 3.2 6.4 0.00 1.55 0.00 77 1014.6
20260903232159 22 93 1.6 6.4 0.00 1.55 0.00 80 1014.7
20260903231656 22 91 3.2 6.4 0.00 1.55 0.00 83 1014.6
20260903231629 21 96 3.2 6.4 0.00 1.55 0.00 90 1014.7
20260903230641 21 82 1.6 4.8 0.00 1.55 0.00 92 1014.8
20260903230135 21 105 0.0 3.2 0.00 1.55 0.00 94 1014.9
20260903225848 21 105 1.6 4.8 0.00 1.55 0.00 94 1014.8
20260903225127 21 105 3.2 8.0 0.00 1.55 0.00 94 1014.9
20260903224617 21 91 4.8 8.0 0.00 1.55 0.00 94 1014.9
20260903224111 21 96 3.2 8.0 0.00 1.55 0.00 94 1014.9
20260903223833 21 96 3.2 8.0 0.00 1.55 0.00 94 1015.0
20260903223319 21 124 1.6 4.8 0.00 1.55 0.00 95 1015.0
20260903222553 21 120 1.6 6.4 0.00 1.55 0.00 95 1015.0
20260903222047 21 96 3.2 6.4 0.00 1.55 0.00 95 1015.0
20260903221541 22 146 3.2 8.0 0.00 1.57 0.00 95 1015.0
20260903221035 22 155 3.2 8.0 0.00 1.63 0.00 96 1015.0
20260903220529 22 148 1.6 3.2 0.00 1.63 0.00 96 1015.1
20260903220023 22 101 1.6 3.2 0.00 1.65 0.00 96 1015.0
20260903220008 21 101 1.6 3.2 0.00 1.68 0.00 95 1015.0
20260903215011 21 101 3.2 4.8 0.00 1.73 0.00 96 1014.9
20260903214730 21 101 1.6 4.8 0.00 1.80 0.00 96 1014.9
20260903214221 21 101 0.0 3.2 0.00 1.88 0.00 96 1014.9
20260903213453 21 101 0.0 1.6 0.00 1.91 0.00 96 1014.9
20260903212947 21 101 0.0 1.6 0.00 1.91 0.00 96 1014.9
20260903212441 21 101 0.0 3.2 0.00 1.91 0.00 96 1014.8
20260903212154 21 101 1.6 3.2 0.00 1.91 0.00 96 1014.8
20260903211429 21 101 0.0 3.2 0.00 1.91 0.00 96 1014.7
20260903210923 21 101 0.0 3.2 0.00 1.91 0.00 96 1014.9
20260903210417 21 101 0.0 3.2 0.00 1.91 0.00 96 1014.8
20260903205911 21 101 1.6 3.2 0.00 1.91 1.91 95 1014.8
20260903205405 21 101 1.6 4.8 0.00 1.91 1.91 96 1014.7
20260903204900 21 103 1.6 4.8 0.00 1.91 1.91 95 1014.7
20260903204625 21 79 1.6 3.2 0.00 1.91 1.91 96 1014.6
20260903203847 21 79 1.6 4.8 0.00 1.91 1.91 95 1014.7
20260903203341 21 79 1.6 4.8 0.00 1.91 1.91 96 1014.6
20260903202835 21 87 1.6 4.8 0.00 1.91 1.91 96 1014.6
20260903202553 21 77 1.6 3.2 0.00 1.91 1.91 96 1014.5
20260903201823 21 79 1.6 3.2 0.00 1.91 1.91 96 1014.7
20260903201317 21 79 1.6 3.2 0.00 1.91 1.91 96 1014.6
20260903200811 21 110 0.0 1.6 0.00 1.91 1.91 96 1014.5
20260903200305 21 110 0.0 4.8 0.00 1.91 1.91 96 1014.5
20260903195759 21 110 1.6 4.8 0.00 1.91 1.91 96 1014.6
20260903195514 21 105 1.6 4.8 0.00 1.91 1.91 96 1014.4
20260903194747 21 93 1.6 3.2 0.00 1.91 1.91 96 1014.5
20260903194241 21 98 1.6 3.2 0.00 1.91 1.91 96 1014.6
20260903193735 22 115 1.6 3.2 0.00 1.91 1.91 96 1014.5
20260903193229 21 256 0.0 3.2 0.00 1.91 1.91 96 1014.6
20260903192724 21 256 0.0 0.0 0.00 1.91 1.91 96 1014.7
20260903192218 21 256 0.0 0.0 0.00 1.91 1.91 96 1014.7
20260903191933 21 256 1.6 3.2 0.00 1.91 1.91 96 1014.8
20260903191205 21 256 1.6 4.8 0.03 1.91 1.91 96 1014.8
20260903190923 21 358 1.6 6.4 0.03 1.91 1.91 96 1014.7
20260903190153 21 114 4.8 14.5 0.08 1.91 1.91 96 1014.5
20260903185647 21 103 8.0 14.5 0.10 1.91 1.91 95 1014.5
20260903185141 21 98 8.0 12.9 0.13 1.91 1.91 96 1014.5
20260903185121 21 71 8.0 17.7 0.15 1.91 1.91 96 1014.6
20260903184129 21 91 8.0 17.7 0.33 1.91 1.91 96 1014.4
20260903183623 21 98 8.0 12.9 0.51 1.91 1.91 96 1014.5
20260903183347 21 100 3.2 11.3 0.69 1.91 1.91 96 1014.6
20260903182611 21 81 1.6 4.8 1.27 1.91 1.91 96 1014.8
20260903182108 21 84 1.6 8.0 1.32 1.91 1.91 96 1014.9
20260903181559 21 98 4.8 12.9 1.32 1.91 1.91 96 1014.7
20260903181054 20 147 4.8 12.9 1.30 1.88 1.88 95 1014.6
20260903180548 20 191 3.2 11.3 1.30 1.88 1.88 95 1014.8
20260903180041 20 219 4.8 12.9 1.24 1.83 1.83 95 1014.8
20260903175757 20 129 4.8 12.9 1.22 1.80 1.80 95 1015.0
20260903175029 20 141 3.2 11.3 1.19 1.78 1.78 95 1015.0
20260903174523 20 150 4.8 11.3 1.12 1.70 1.70 94 1015.0
20260903174022 20 284 4.8 20.9 0.97 1.55 1.55 93 1015.8
20260903173520 21 289 16.1 51.5 0.76 1.35 1.37 91 1016.2
20260903173017 21 223 22.5 51.5 0.53 1.12 1.12 86 1016.6
20260903172518 26 359 14.5 40.2 0.03 0.61 0.61 60 1015.5
20260903172246 29 306 6.4 24.1 0.00 0.58 0.58 51 1014.4
20260903171516 29 334 6.4 12.9 0.00 0.58 0.58 48 1014.3
20260903171014 29 83 8.0 16.1 0.00 0.58 0.58 49 1013.9
20260903170515 29 105 6.4 16.1 0.00 0.58 0.58 49 1013.6
20260903170237 30 160 4.8 12.9 0.00 0.58 0.58 49 1013.3
20260903165731 30 113 6.4 14.5 0.00 0.58 0.58 49 1013.2
20260903165012 30 152 8.0 17.7 0.00 0.58 0.58 48 1012.9
20260903164513 30 147 6.4 17.7 0.00 0.58 0.58 47 1013.0
20260903164013 30 275 6.4 19.3 0.00 0.58 0.58 47 1013.0
20260903163512 30 148 6.4 19.3 0.00 0.58 0.58 47 1012.9
20260903163012 30 153 6.4 16.1 0.00 0.58 0.58 47 1012.9
20260903162512 31 129 4.8 11.3 0.00 0.58 0.58 46 1012.9
20260903162012 31 176 3.2 11.3 0.00 0.58 0.58 46 1013.1
20260903161512 31 228 3.2 11.3 0.00 0.58 0.58 46 1013.1
20260903161225 31 146 3.2 11.3 0.00 0.58 0.58 46 1013.0
20260903160508 31 219 4.8 11.3 0.00 0.58 0.58 46 1013.0
20260903160008 31 183 4.8 12.9 0.00 0.58 0.58 44 1012.8
20260903155505 31 207 4.8 16.1 0.00 0.58 0.58 46 1012.7
20260903155005 31 200 6.4 16.1 0.00 0.58 0.58 46 1012.7
20260903154504 31 229 6.4 12.9 0.00 0.58 0.58 48 1012.7
20260903154005 31 145 6.4 11.3 0.00 0.58 0.58 47 1012.7
20260903153505 31 157 6.4 14.5 0.00 0.58 0.58 46 1012.5
20260903153227 32 198 6.4 14.5 0.00 0.58 0.58 45 1012.5
20260903152504 32 226 6.4 12.9 0.00 0.58 0.58 44 1012.5
20260903152226 32 186 6.4 14.5 0.00 0.58 0.58 44 1012.5
20260903151724 32 205 6.4 16.1 0.00 0.58 0.58 45 1012.4
20260903151005 32 203 8.0 16.1 0.00 0.58 0.58 47 1012.3
20260903150504 32 214 6.4 16.1 0.00 0.58 0.58 44 1012.3
20260903150228 32 210 6.4 14.5 0.00 0.58 0.58 49 1012.2
20260903145730 32 198 4.8 14.5 0.00 0.58 0.58 52 1012.3
20260903145005 32 186 4.8 12.9 0.00 0.58 0.58 52 1012.2
20260903144719 31 207 6.4 12.9 0.00 0.58 0.58 53 1012.1
20260903143953 31 255 8.0 14.5 0.00 0.58 0.58 54 1012.1
20260903143454 31 246 6.4 14.5 0.00 0.58 0.58 52 1012.1
20260903143214 32 215 4.8 12.9 0.00 0.58 0.58 51 1012.1
20260903142451 32 143 6.4 14.5 0.00 0.58 0.58 49 1012.2
20260903141950 31 239 8.0 17.7 0.00 0.58 0.58 51 1012.2
20260903141709 31 242 9.7 17.7 0.00 0.58 0.58 53 1012.3
20260903140950 31 252 8.0 16.1 0.00 0.58 0.58 50 1012.4
20260903140450 31 257 8.0 16.1 0.00 0.58 0.58 49 1012.5
20260903135948 32 276 8.0 16.1 0.00 0.58 0.58 52 1012.5
20260903135703 32 250 8.0 14.5 0.00 0.58 0.58 49 1012.5
20260903134948 32 255 8.0 17.7 0.00 0.58 0.58 49 1012.5
20260903134939 32 176 6.4 17.7 0.00 0.58 0.58 50 1012.6
20260903134438 32 206 6.4 16.1 0.00 0.58 0.58 51 1012.7
20260903133447 32 212 6.4 16.1 0.00 0.58 0.58 52 1012.7
20260903132944 32 255 6.4 16.1 0.00 0.58 0.58 51 1012.7
20260903132707 31 257 9.7 19.3 0.00 0.58 0.58 53 1012.7
20260903131944 31 292 9.7 19.3 0.00 0.58 0.58 52 1012.7
20260903131701 31 250 9.7 16.1 0.00 0.58 0.58 50 1012.7
20260903130944 31 266 9.7 19.3 0.00 0.58 0.58 49 1012.8
20260903130443 31 259 11.3 19.3 0.00 0.58 0.58 50 1012.8
20260903125943 31 233 11.3 19.3 0.00 0.58 0.58 50 1012.9
20260903125444 31 258 9.7 19.3 0.00 0.58 0.58 49 1012.8
20260903125200 31 245 8.0 17.7 0.00 0.58 0.58 49 1012.9
20260903124443 31 276 9.7 16.1 0.00 0.58 0.58 50 1013.0
20260903123943 31 264 9.7 16.1 0.00 0.58 0.58 49 1013.0
20260903123444 31 280 9.7 17.7 0.00 0.58 0.58 49 1013.0
20260903123205 31 275 11.3 17.7 0.00 0.58 0.58 50 1013.1
20260903122444 31 297 11.3 16.1 0.00 0.58 0.58 49 1013.0
20260903121943 31 281 9.7 16.1 0.00 0.58 0.58 50 1013.1
20260903121444 31 271 11.3 17.7 0.00 0.58 0.58 49 1013.1
20260903120944 31 292 11.3 17.7 0.00 0.58 0.58 49 1013.3
20260903120443 31 237 11.3 16.1 0.00 0.58 0.58 49 1013.3
20260903115936 31 259 9.7 16.1 0.00 0.58 0.58 51 1013.3
20260903115431 31 269 11.3 19.3 0.00 0.58 0.58 51 1013.4
20260903114925 31 264 11.3 19.3 0.00 0.58 0.58 51 1013.5
20260903114641 31 281 9.7 19.3 0.00 0.58 0.58 50 1013.6
20260903113912 30 243 11.3 17.7 0.00 0.58 0.58 52 1013.6
20260903113406 30 255 11.3 17.7 0.00 0.58 0.58 50 1013.6
20260903112908 31 264 8.0 16.1 0.00 0.58 0.58 51 1013.7
20260903112407 31 276 8.0 19.3 0.00 0.58 0.58 52 1013.7
20260903111909 31 292 9.7 19.3 0.00 0.58 0.58 51 1013.7
20260903111407 30 261 8.0 14.5 0.00 0.58 0.58 52 1013.8
20260903110907 30 307 8.0 16.1 0.00 0.58 0.58 53 1013.9
20260903110403 30 255 8.0 16.1 0.00 0.58 0.58 53 1013.8
20260903105903 30 274 8.0 19.3 0.00 0.58 0.58 54 1013.9
20260903105403 30 279 11.3 19.3 0.00 0.58 0.58 55 1014.0
20260903105127 30 266 12.9 19.3 0.00 0.58 0.58 55 1014.1
20260903104404 30 264 11.3 19.3 0.00 0.58 0.58 55 1014.1
20260903103903 30 262 9.7 17.7 0.00 0.58 0.58 55 1014.2
20260903103404 30 259 9.7 17.7 0.00 0.58 0.58 55 1014.3
20260903102903 30 299 9.7 17.7 0.00 0.58 0.58 56 1014.3
20260903102404 30 268 9.7 17.7 0.00 0.58 0.58 55 1014.3
20260903101902 30 338 9.7 17.7 0.00 0.58 0.58 51 1014.4
20260903101356 30 297 11.3 17.7 0.00 0.58 0.58 49 1014.5
20260903100849 30 291 11.3 17.7 0.00 0.58 0.58 49 1014.6
20260903100342 29 271 11.3 17.7 0.00 0.58 0.58 51 1014.6
20260903095837 30 311 9.7 17.7 0.00 0.58 0.58 52 1014.7
20260903095330 29 305 9.7 17.7 0.00 0.58 0.58 54 1014.8
20260903094825 29 323 11.3 17.7 0.00 0.58 0.58 56 1014.8
20260903094319 29 289 11.3 19.3 0.00 0.58 0.58 56 1014.8
20260903093812 28 301 11.3 19.3 0.00 0.58 0.58 56 1015.0
20260903093533 28 283 12.9 17.7 0.00 0.58 0.58 56 1015.0
20260903093018 28 316 12.9 19.3 0.00 0.58 0.58 58 1015.1
20260903092255 28 298 11.3 19.3 0.00 0.58 0.58 58 1015.1
20260903091749 28 302 9.7 17.7 0.00 0.58 0.58 57 1015.1
20260903091242 28 304 9.7 17.7 0.00 0.58 0.58 57 1015.2
20260903090736 28 314 9.7 16.1 0.00 0.58 0.58 57 1015.2
20260903090231 28 316 9.7 14.5 0.00 0.58 0.58 55 1015.2
20260903085724 28 291 9.7 19.3 0.00 0.58 0.58 56 1015.2
20260903085219 28 278 12.9 19.3 0.00 0.58 0.58 55 1015.2
20260903084713 28 302 12.9 17.7 0.00 0.58 0.58 55 1015.2
20260903084207 28 309 12.9 17.7 0.00 0.58 0.58 54 1015.2
20260903083701 28 274 11.3 19.3 0.00 0.58 0.58 54 1015.2
20260903083154 28 303 9.7 19.3 0.00 0.58 0.58 52 1015.2
20260903082917 28 304 6.4 14.5 0.00 0.58 0.58 51 1015.2
20260903082403 28 279 4.8 11.3 0.00 0.58 0.58 53 1015.2
20260903081637 28 359 6.4 12.9 0.00 0.58 0.58 52 1015.3
20260903081131 28 303 8.0 12.9 0.00 0.58 0.58 56 1015.3
20260903080625 28 11 8.0 12.9 0.00 0.58 0.58 56 1015.3
20260903080114 28 295 8.0 14.5 0.00 0.58 0.58 57 1015.3
20260903075609 28 264 6.4 14.5 0.00 0.58 0.58 57 1015.3
20260903075102 27 276 6.4 14.5 0.00 0.58 0.58 59 1015.3
20260903074557 27 311 4.8 14.5 0.00 0.58 0.58 62 1015.4
20260903074050 27 280 6.4 12.9 0.00 0.58 0.58 62 1015.4
20260903073545 27 313 4.8 12.9 0.00 0.58 0.58 62 1015.5
20260903073040 27 314 4.8 11.3 0.00 0.58 0.58 63 1015.4
20260903072532 26 315 4.8 11.3 0.00 0.58 0.58 64 1015.5
20260903072027 26 305 4.8 9.7 0.00 0.58 0.58 66 1015.5
20260903071521 26 285 4.8 11.3 0.00 0.58 0.58 66 1015.5
20260903071014 26 294 4.8 11.3 0.00 0.58 0.58 66 1015.5
20260903070508 26 300 4.8 11.3 0.00 0.58 0.58 68 1015.5
20260903070004 26 285 6.4 11.3 0.00 0.58 0.58 69 1015.5
20260903065457 26 276 4.8 9.7 0.00 0.58 0.58 69 1015.5
20260903064951 26 222 3.2 8.0 0.00 0.58 0.58 69 1015.4
20260903064710 26 252 1.6 6.4 0.00 0.58 0.58 66 1015.4
20260903063939 27 265 1.6 4.8 0.00 0.58 0.58 63 1015.3
20260903063432 27 117 0.0 3.2 0.00 0.58 0.58 63 1015.3
20260903062927 26 111 1.6 6.4 0.00 0.58 0.58 65 1015.4
20260903062421 27 113 1.6 6.4 0.00 0.58 0.58 63 1015.4
20260903061915 27 86 0.0 3.2 0.00 0.58 0.58 64 1015.4
20260903061409 27 86 0.0 3.2 0.00 0.58 0.58 63 1015.5
20260903060902 26 86 0.0 3.2 0.00 0.58 0.58 66 1015.5
20260903060357 26 86 1.6 3.2 0.00 0.58 0.58 66 1015.5
20260903055851 26 86 1.6 3.2 0.00 0.58 0.58 68 1015.5
20260903055345 26 86 1.6 4.8 0.00 0.58 0.58 68 1015.5
20260903054839 25 86 1.6 4.8 0.00 0.58 0.58 70 1015.5
20260903054557 25 302 1.6 6.4 0.00 0.58 0.58 72 1015.6
20260903053827 25 302 1.6 6.4 0.00 0.58 0.58 72 1015.6
20260903053321 25 275 1.6 6.4 0.00 0.58 0.58 73 1015.6
20260903052819 25 287 1.6 4.8 0.00 0.58 0.58 73 1015.7
20260903052319 25 283 1.6 6.4 0.00 0.58 0.58 72 1015.7
20260903051819 25 290 1.6 6.4 0.00 0.58 0.58 72 1015.7
20260903051317 25 268 0.0 1.6 0.00 0.58 0.58 72 1015.7
20260903050814 25 1 0.0 1.6 0.00 0.58 0.58 72 1015.7
20260903050313 24 1 0.0 3.2 0.00 0.58 0.58 74 1015.8
20260903045813 23 1 0.0 3.2 0.00 0.58 0.58 76 1015.7
20260903045531 23 270 0.0 3.2 0.00 0.58 0.58 76 1015.7
20260903044811 23 269 1.6 4.8 0.00 0.58 0.58 76 1015.6
20260903044311 23 270 1.6 4.8 0.00 0.58 0.58 76 1015.6
20260903043809 23 117 0.0 1.6 0.00 0.58 0.58 76 1015.5
20260903043309 23 117 0.0 1.6 0.00 0.58 0.58 76 1015.5
20260903042808 23 117 1.6 11.3 0.00 0.58 0.58 76 1015.4
20260903042308 23 117 1.6 11.3 0.00 0.58 0.58 77 1015.4
20260903041805 23 104 1.6 4.8 0.00 0.58 0.58 77 1015.4
20260903041337 23 88 1.6 4.8 0.00 0.58 0.58 79 1015.4
20260903040805 23 103 1.6 3.2 0.00 0.58 0.58 78 1015.3
20260903040304 23 103 0.0 3.2 0.00 0.58 0.58 78 1015.3
20260903035805 23 103 0.0 3.2 0.00 0.58 0.58 79 1015.3
20260903035306 23 103 1.6 4.8 0.00 0.58 0.58 78 1015.3
20260903035117 23 103 3.2 4.8 0.00 0.58 0.58 78 1015.3
20260903035013 23 84 3.2 9.7 0.00 0.58 0.58 79 1015.4
20260903033800 23 73 3.2 9.7 0.00 0.58 0.58 79 1015.4
20260903033301 23 98 4.8 6.4 0.00 0.58 0.58 80 1015.4
20260903032801 23 77 4.8 8.0 0.00 0.58 0.58 80 1015.4
20260903032523 23 89 4.8 9.7 0.00 0.58 0.58 79 1015.5
20260903031801 23 60 3.2 9.7 0.00 0.58 0.58 79 1015.5
20260903031302 23 89 3.2 9.7 0.00 0.58 0.58 79 1015.5
20260903030803 23 72 1.6 3.2 0.00 0.58 0.58 78 1015.4
20260903030302 23 278 0.0 3.2 0.00 0.58 0.58 77 1015.4
20260903025803 23 310 0.0 4.8 0.00 0.58 0.58 78 1015.4
20260903025255 23 341 1.6 6.4 0.00 0.58 0.58 80 1015.4
20260903025012 23 347 1.6 6.4 0.00 0.58 0.58 80 1015.4
20260903024243 23 53 1.6 6.4 0.00 0.58 0.58 80 1015.4
20260903023737 23 281 3.2 9.7 0.00 0.58 0.58 79 1015.5
20260903023720 23 278 6.4 14.5 0.00 0.58 0.58 79 1015.5
20260903022725 23 282 8.0 14.5 0.00 0.58 0.58 81 1015.4
20260903022219 23 274 9.7 16.1 0.00 0.58 0.58 83 1015.4
20260903021935 23 298 11.3 25.7 0.00 0.58 0.58 83 1015.5
20260903021207 23 262 12.9 30.6 0.00 0.58 0.58 85 1015.4
20260903020701 23 276 12.9 30.6 0.08 0.58 0.58 85 1015.4
20260903020155 23 291 11.3 25.7 0.13 0.58 0.58 83 1015.3
20260903015649 23 312 6.4 25.7 0.13 0.58 0.58 80 1015.3
20260903015143 23 283 3.2 9.7 0.15 0.58 0.58 81 1015.1
20260903014637 23 13 3.2 8.0 0.23 0.58 0.58 80 1014.9
20260903014620 23 8 1.6 6.4 0.23 0.58 0.58 79 1014.6
20260903013625 23 134 3.2 9.7 0.23 0.58 0.58 80 1014.6
20260903013120 23 157 3.2 9.7 0.23 0.58 0.58 79 1014.6
20260903012612 23 107 3.2 11.3 0.23 0.61 0.58 78 1014.6
20260903012105 23 126 6.4 12.9 0.23 0.61 0.58 77 1014.6
20260903011823 24 155 9.7 22.5 0.23 0.61 0.58 73 1014.8
20260903011053 25 98 11.3 22.5 0.20 0.61 0.58 69 1014.9
20260903010547 25 119 9.7 22.5 0.13 0.51 0.51 66 1015.4
20260903010042 25 98 6.4 22.5 0.10 0.51 0.46 67 1015.7
20260903005535 25 108 3.2 8.0 0.10 0.51 0.46 69 1015.9
20260903005030 25 269 3.2 8.0 0.08 0.48 0.43 67 1016.1
20260903004523 25 112 6.4 20.9 0.00 0.41 0.36 67 1015.9
20260903004017 25 84 11.3 20.9 0.00 0.41 0.36 66 1015.7
20260903003954 25 99 12.9 27.4 0.03 0.41 0.36 66 1015.8
20260903003231 25 86 16.1 29.0 0.03 0.41 0.36 67 1015.6
20260903002459 25 66 14.5 29.0 0.03 0.41 0.36 69 1015.5
20260903001954 24 84 16.1 29.0 0.03 0.41 0.36 70 1015.6
20260903001447 24 89 17.7 33.8 0.03 0.41 0.36 71 1015.6
20260903001203 24 91 17.7 33.8 0.03 0.41 0.36 71 1015.7
20260903000435 24 77 17.7 35.4 0.03 0.41 0.36 72 1015.6
20260902235929 24 96 17.7 40.2 0.03 0.41 0.36 73 1015.7
20260902235423 23 44 14.5 40.2 0.03 0.41 0.36 74 1015.8
20260902234917 23 94 16.1 33.8 0.03 0.41 0.36 74 1015.9
20260902234630 23 79 19.3 33.8 0.03 0.41 0.36 74 1015.7
20260902234123 24 39 17.7 33.8 0.03 0.41 0.36 74 1015.7